Temperature
24 24 23 24 25 25 28 31 32 32 31 32 31 31 30 29 27 26 26 25 23 22 22 22 21 21 20 20 19 19 19 19 19 19 19 19 19 19 19 18 18 18 18 18 18 18 18 18 18
24 24 25 26 25 26 28 32 31 31 31 31 31 31 30 29 28 27 26 25 23 22 22 21 21 21 20 20 19 19 19 19 19 19 19 19 19 18 18 18 18 18 18 18 18 18 18 18 18
24 25 27 29 27 28 30 31 32 32 32 31 31 30 29 28 27 26 25 24 22 21 21 22 21 21 20 20 19 19 19 19 19 19 19 18 18 18 18 18 18 18 18 18 18 18 18 18 18
24 27 29 30 30 31 32 32 33 32 32 31 31 30 28 27 27 26 25 24 22 21 21 22 21 21 20 20 19 19 19 19 19 19 18 18 18 18 18 18 18 18 18 18 18 18 18 18 18
26 28 29 29 31 33 34 33 33 32 32 31 30 29 27 26 26 25 25 24 22 21 21 22 21 21 20 20 20 19 19 19 19 19 18 18 18 18 18 18 18 18 18 18 18 18 18 18 18
28 30 29 30 31 33 34 33 33 33 32 31 30 29 26 26 25 25 25 24 23 21 21 22 21 21 20 20 20 19 19 19 19 19 18 18 18 18 18 18 18 18 18 18 18 18 18 18 18
29 30 30 31 32 33 34 34 33 33 32 31 30 29 26 26 25 25 24 24 23 21 21 22 21 20 20 20 20 19 19 19 19 19 18 18 18 18 18 18 18 18 18 18 18 18 18 18 19
29 31 31 32 33 33 34 34 33 33 32 31 30 28 26 25 25 25 24 24 23 22 21 21 20 20 20 20 20 19 19 19 19 19 19 19 19 18 18 18 18 18 18 18 18 18 18 18 19
30 30 30 32 33 33 34 34 33 32 32 31 30 28 26 25 25 25 24 24 23 22 21 20 19 20 19 19 19 19 19 19 19 19 19 19 18 18 18 18 18 18 18 18 18 18 18 18 19
31 30 31 33 34 34 34 34 33 33 32 30 29 27 26 25 25 25 24 24 23 22 21 21 20 19 19 18 19 19 19 19 19 19 19 18 18 18 18 18 18 18 18 18 18 18 18 18 18
32 31 33 34 34 34 34 34 33 33 31 30 28 26 26 25 25 24 24 24 23 22 22 21 20 20 19 19 19 19 18 19 18 18 18 18 18 18 18 18 18 18 18 18 18 18 18 18 18
32 33 33 33 33 33 33 34 33 33 32 30 29 27 26 25 25 24 24 24 23 22 22 21 20 20 20 19 19 19 19 19 18 18 18 18 18 18 18 18 18 18 18 18 18 18 18 18 18
32 33 33 33 33 33 33 33 33 33 31 30 29 27 26 26 25 24 24 23 22 22 22 21 21 20 20 19 19 19 19 19 19 19 19 18 18 18 18 18 18 18 18 18 18 18 18 18 18
33 33 33 33 33 33 33 33 33 32 31 30 29 28 27 26 25 24 23 23 22 21 21 21 20 20 19 19 20 19 19 19 19 19 19 18 18 18 18 18 18 18 18 18 18 18 18 18 18
32 32 33 33 33 33 33 32 32 31 31 30 30 28 27 26 25 24 23 22 21 21 21 20 20 19 19 19 19 19 19 19 19 19 19 18 18 18 18 18 18 18 18 18 18 18 18 18 18
32 32 31 33 34 34 33 31 32 31 30 30 30 29 27 26 25 24 23 22 21 21 20 20 19 19 19 19 19 19 19 19 19 19 19 18 18 18 18 18 18 18 18 18 18 18 18 18 18
31 31 31 32 34 34 33 32 32 30 30 29 29 29 27 26 25 24 23 22 21 21 20 20 19 19 19 19 19 19 19 19 19 19 18 18 18 18 18 18 18 18 18 18 18 18 18 18 18
30 31 31 32 33 33 33 32 32 31 30 30 29 29 27 26 24 23 22 21 21 20 20 19 19 19 18 18 19 18 19 19 19 18 18 18 18 18 18 18 18 18 18 18 18 18 18 18 18
32 31 31 32 34 33 32 32 32 32 31 30 29 29 27 25 24 23 22 21 20 20 19 19 18 18 18 18 18 18 18 18 18 18 18 18 18 18 18 18 18 18 18 18 18 18 18 18 18
31 31 31 32 33 33 32 32 32 31 31 30 29 29 27 25 24 23 21 21 20 19 19 19 18 18 18 18 18 18 18 18 18 18 18 18 18 18 18 18 18 18 18 18 18 17 17 17 18
31 31 31 32 32 33 32 31 31 30 29 29 29 28 27 26 24 23 21 20 20 19 19 18 18 18 18 18 18 18 18 18 18 18 18 18 18 18 18 18 18 18 18 18 18 17 18 17 18
30 32 32 32 31 30 31 29 29 28 27 27 28 28 27 26 25 23 22 20 20 19 19 19 18 18 18 18 18 18 18 17 18 18 18 18 18 18 18 18 18 18 18 18 18 17 17 18 18
31 32 32 32 31 30 30 29 28 28 26 26 27 28 28 26 25 23 22 21 20 19 19 18 18 18 18 18 18 18 18 18 18 18 18 18 18 18 17 17 17 17 17 17 17 17 17 17 17
32 31 31 31 30 28 28 28 27 27 27 28 28 28 27 27 25 23 22 21 20 19 19 18 18 18 18 18 17 17 17 17 17 18 18 18 17 17 17 17 17 17 17 17 17 17 17 17 17
31 30 28 28 28 27 27 27 27 29 30 29 29 28 28 27 25 23 22 21 20 19 18 18 18 18 17 17 17 17 17 17 17 18 18 18 18 17 17 17 17 17 17 17 17 17 17 17 17
31 30 28 27 27 26 25 24 27 30 30 30 29 29 28 27 25 24 22 21 20 19 19 18 18 18 17 17 17 17 17 17 17 18 18 18 18 18 18 17 17 17 17 17 17 17 17 17 17
30 30 31 29 28 27 26 25 26 28 29 29 30 29 28 27 26 24 23 21 20 19 19 18 18 18 17 17 17 17 17 17 17 18 18 18 18 18 17 17 17 17 17 17 17 17 16 16 17
32 31 30 29 27 26 26 25 25 26 27 28 29 29 28 27 26 25 23 22 21 20 19 18 18 18 18 17 17 17 17 17 17 17 18 18 18 18 18 17 17 17 17 17 17 16 16 16 16
30 30 29 29 29 27 26 25 25 24 25 27 29 29 28 27 26 25 23 22 21 20 19 19 18 18 18 17 17 17 17 17 17 17 18 18 18 18 17 17 17 17 17 17 17 17 16 16 16
31 30 30 28 28 28 27 26 26 25 26 28 29 29 28 27 26 25 23 22 21 20 19 19 18 18 17 17 17 17 17 17 17 18 18 18 18 17 17 17 17 17 17 17 17 17 16 16 16
Wind_Speed
11 13 11 7 3 4 3 8 10 11 12 11 10 10 14 15 10 9 12 21 26 23 21 21 20 19 18 18 17 17 16 15 15 14 14 13 13 14 14 14 14 15 15 15 15 16 16 16 15
11 14 10 5 3 1 2 8 11 12 10 9 9 11 14 15 13 12 15 21 26 23 21 20 20 19 19 18 17 16 16 15 15 14 13 13 13 13 13 14 14 14 15 15 15 15 15 15 14
13 17 8 5 5 2 3 7 9 10 9 8 8 10 12 11 11 10 17 21 24 21 20 21 21 20 19 18 17 16 16 15 14 13 13 13 13 13 13 14 14 14 14 15 15 15 15 14 12
9 9 6 7 6 1 5 6 7 8 7 7 7 9 10 8 8 13 18 21 23 21 21 22 21 20 19 18 17 16 15 15 14 13 13 13 13 13 13 14 14 14 14 14 14 14 13 12 10
11 7 8 8 8 1 6 6 4 7 6 7 9 12 11 9 12 16 17 20 21 21 21 21 21 20 19 18 17 16 15 15 14 14 13 13 13 13 14 14 13 14 14 14 13 13 12 11 8
8 8 8 7 4 0 4 5 4 6 7 7 9 11 8 10 13 14 16 18 20 21 21 20 20 20 19 18 17 16 15 15 14 14 13 13 13 13 13 13 13 13 13 12 12 12 11 9 7
11 11 13 12 5 1 3 3 3 5 6 5 6 11 9 11 13 15 15 16 18 21 21 18 19 18 18 17 17 16 16 15 14 14 13 13 14 13 13 13 12 12 12 11 11 10 9 8 5
12 11 14 11 4 2 2 2 3 3 6 6 4 7 8 13 14 15 14 14 17 20 20 18 18 17 16 16 16 16 16 15 15 14 14 14 14 13 13 13 12 12 11 11 10 9 8 7 5
14 12 11 10 4 2 3 1 3 3 5 5 7 10 11 14 16 16 14 12 14 17 17 18 18 16 16 17 17 16 16 15 15 14 14 14 13 13 12 13 12 11 10 10 9 8 7 6 6
11 11 11 8 5 2 1 1 1 3 4 5 9 11 14 12 15 16 15 14 14 15 16 15 17 15 15 15 16 14 14 14 13 13 14 12 10 11 13 15 12 11 10 9 8 8 7 6 6
14 15 13 10 6 5 4 3 3 4 1 5 9 12 13 14 14 14 14 13 13 12 12 14 15 14 12 10 12 10 10 12 12 14 14 11 10 11 13 11 10 10 10 9 8 9 8 6 4
15 15 13 10 8 6 7 7 5 3 2 7 13 16 16 15 15 14 14 13 13 11 10 12 13 12 9 10 9 8 8 8 9 12 12 9 5 6 8 7 9 9 8 7 7 5 5 4 4
15 15 14 12 10 9 10 10 8 4 4 7 11 15 15 15 14 12 12 12 12 11 11 11 12 9 7 7 7 8 7 8 9 11 9 9 4 4 5 4 5 7 7 6 3 2 3 2 1
13 14 14 14 13 11 11 11 9 4 3 6 9 11 12 11 13 11 10 11 12 11 10 10 12 11 8 6 4 3 5 7 9 10 10 9 7 4 3 3 3 3 6 5 3 3 3 2 1
15 15 15 15 15 13 11 11 8 3 3 5 8 10 11 12 12 13 12 11 12 11 10 10 11 12 9 8 6 5 4 7 6 8 10 9 9 7 4 4 3 3 5 5 3 3 3 3 3
15 16 16 16 16 13 12 12 6 7 6 6 7 9 11 10 11 11 11 10 11 11 10 11 12 13 10 7 6 4 4 5 5 8 9 9 10 10 5 4 4 5 6 4 3 2 2 2 2
16 16 17 16 14 12 12 10 6 7 7 9 8 8 10 11 10 10 10 11 10 10 10 11 10 12 11 8 6 4 4 4 5 7 7 9 10 10 6 4 4 5 4 3 4 3 2 1 1
13 13 14 13 10 11 11 10 6 9 9 8 9 9 9 11 11 10 10 10 10 11 10 11 10 11 10 8 6 4 4 4 4 5 6 9 9 9 7 5 5 4 3 3 3 4 2 1 1
18 16 13 10 6 9 10 10 8 9 9 8 8 8 9 10 11 11 11 11 11 11 11 11 11 11 9 7 8 7 6 5 5 5 8 9 9 9 5 4 5 3 3 4 5 3 3 2 2
17 17 15 10 9 9 10 12 9 5 6 7 7 8 10 11 11 12 11 10 11 11 11 11 10 11 10 8 8 6 6 6 6 5 7 9 8 8 8 5 5 4 4 4 4 3 1 3 3
17 16 15 13 11 11 13 13 8 3 3 6 8 8 10 12 13 13 12 11 11 11 11 11 11 10 10 10 8 7 6 5 6 7 7 7 8 8 5 7 4 5 5 5 5 4 4 2 2
16 15 15 15 13 11 12 12 6 5 5 8 9 9 10 11 13 13 13 12 12 11 11 9 10 10 10 10 10 11 9 7 7 7 7 7 7 7 7 7 6 5 4 6 6 6 3 2 2
15 13 14 15 14 14 12 11 6 4 4 7 11 9 10 11 12 13 13 12 12 11 10 9 9 9 9 9 11 10 9 7 6 7 8 7 6 6 7 7 5 5 3 5 4 4 2 2 3
13 13 13 13 13 15 12 10 7 6 8 10 9 8 9 10 12 12 11 11 11 10 10 10 10 9 9 10 10 10 10 9 8 8 9 7 6 6 7 7 5 5 4 5 4 4 4 2 1
14 12 10 11 11 10 8 9 7 7 7 7 8 9 11 11 12 12 12 12 11 10 10 10 10 10 10 11 11 10 10 9 9 9 9 8 7 6 8 8 6 6 5 5 5 5 4 4 3
15 15 12 11 9 6 4 6 7 4 5 5 7 8 11 12 12 12 12 11 11 10 10 10 10 10 10 11 10 9 9 8 7 8 8 8 7 8 9 8 8 7 6 7 6 5 5 4 4
15 14 15 14 14 11 5 7 7 6 2 2 6 7 9 11 12 12 13 12 11 11 9 9 9 9 9 10 10 10 9 8 8 8 7 7 6 8 11 10 9 8 7 6 6 5 5 5 5
16 13 9 11 11 12 7 4 3 4 1 3 6 8 9 10 12 13 12 12 11 11 9 9 8 8 8 9 9 10 9 9 8 8 9 8 8 7 10 10 9 8 8 7 6 6 5 5 5
13 14 12 10 10 10 8 3 2 4 6 7 6 8 9 10 11 11 11 11 11 11 10 8 8 8 8 8 8 8 8 8 8 7 8 7 7 8 9 9 9 8 8 8 8 7 7 7 6
13 14 13 11 11 10 8 4 2 4 9 7 4 6 8 9 10 11 11 11 11 10 10 9 8 8 8 8 8 8 8 7 8 8 8 8 7 8 8 8 8 9 9 9 9 9 8 8 8
Wind_Direction
233 242 235 248 260 270 294 78 72 67 67 61 54 56 60 61 75 102 127 125 120 125 130 132 131 132 132 130 130 129 127 124 120 117 114 111 108 106 105 104 102 102 101 102 102 99 98 98 100
256 254 245 243 245 291 360 70 76 75 77 79 65 65 74 68 80 107 120 122 123 128 136 134 134 134 134 134 132 131 130 128 125 122 119 116 113 111 109 107 105 104 104 104 103 102 100 101 103
261 264 263 240 242 234 77 74 86 88 84 80 80 66 68 77 87 111 125 129 125 130 130 132 137 136 136 136 135 134 133 131 128 126 122 119 117 115 112 110 108 107 106 105 105 105 104 104 107
260 254 247 259 270 183 93 88 97 100 89 82 85 80 79 76 103 123 134 132 127 130 131 136 138 138 138 138 137 136 135 133 131 129 125 122 119 115 113 112 111 109 109 108 108 108 107 108 111
253 263 259 275 288 60 89 87 95 104 100 90 92 97 94 93 109 126 139 135 135 135 132 139 140 140 141 140 140 139 138 136 134 131 129 126 122 118 116 114 113 111 111 111 110 110 110 113 117
259 256 263 273 271 338 91 108 109 103 96 100 102 105 101 117 122 137 145 141 140 134 134 139 142 142 143 143 144 143 141 140 138 135 133 130 126 123 121 119 117 115 114 114 113 113 114 117 122
262 277 278 276 253 127 83 95 96 110 105 91 104 109 123 129 134 143 147 144 137 134 135 144 146 146 147 147 147 147 145 143 141 138 136 134 130 128 127 124 122 120 119 119 119 118 120 125 134
262 283 291 291 267 126 102 119 101 93 107 104 88 102 130 137 146 145 150 148 139 138 142 149 150 149 152 152 152 151 149 146 145 144 142 138 137 137 137 133 127 126 125 124 124 127 129 138 159
258 267 280 285 299 119 119 155 125 128 124 111 87 98 134 146 149 148 155 155 145 144 147 154 151 155 159 157 154 155 154 153 150 152 153 153 156 152 154 133 134 134 134 134 136 142 147 158 185
243 257 270 289 332 18 102 282 227 198 152 126 101 108 134 151 157 159 164 163 153 149 154 156 154 158 164 159 152 161 163 161 169 163 169 180 169 153 139 136 142 145 149 153 161 167 176 195 198
246 256 273 293 315 324 305 271 251 253 167 126 138 148 153 168 170 168 170 166 155 157 157 154 153 158 163 146 158 165 163 164 179 169 178 184 152 137 135 146 151 161 169 180 172 189 203 199 201
248 266 276 285 302 293 285 283 279 276 138 142 149 162 161 176 176 175 172 167 157 163 158 153 152 158 155 152 164 162 158 169 171 166 181 164 154 146 147 153 167 175 183 181 187 204 179 161 184
243 258 268 272 271 270 274 277 278 259 150 144 149 159 169 176 172 176 168 163 156 163 163 155 147 148 146 144 162 165 158 168 157 159 173 155 151 143 141 139 167 176 166 178 194 180 134 139 179
262 261 261 262 262 257 259 266 264 258 169 160 160 163 169 169 170 166 168 162 163 169 167 154 145 144 146 149 163 143 151 151 149 155 161 160 145 132 138 145 173 171 162 164 167 159 147 171 169
263 268 265 257 251 247 251 256 249 227 205 194 176 171 166 171 173 167 178 170 168 170 168 157 153 149 157 162 174 162 156 148 143 146 153 160 152 146 160 159 177 167 148 151 159 166 171 184 186
255 253 256 251 240 236 239 254 209 177 192 216 194 179 169 166 172 170 168 162 167 168 165 163 167 157 159 167 177 158 156 143 143 146 154 164 155 155 167 168 174 154 156 166 165 189 183 175 169
251 246 251 247 224 226 236 257 175 168 196 207 206 190 175 164 173 166 166 164 165 161 159 163 161 156 162 170 170 163 154 144 147 150 156 166 163 163 176 165 148 170 169 178 187 149 138 121 130
251 250 252 251 209 224 242 256 202 184 203 214 208 190 171 169 173 166 163 160 157 156 160 161 159 160 161 164 163 167 163 157 156 156 160 168 169 173 182 158 162 185 174 162 105 99 88 92 239
268 278 277 266 231 231 255 265 234 201 203 215 207 182 166 167 167 159 160 162 162 159 162 166 167 163 162 167 171 178 178 174 169 164 167 173 175 175 190 161 160 184 158 142 137 133 156 217 218
261 271 276 270 252 250 261 268 260 224 213 215 209 180 166 163 165 160 160 161 164 164 167 172 174 171 172 173 176 178 177 176 174 163 166 176 175 176 187 154 172 167 141 141 139 138 183 222 188
254 259 268 274 275 263 268 266 262 233 240 247 214 191 176 172 168 167 166 168 169 171 177 181 179 177 181 174 171 172 171 182 170 163 169 176 175 184 184 159 172 156 166 156 167 173 198 234 187
250 253 261 270 270 268 270 275 249 190 215 239 232 196 179 174 168 169 170 171 173 174 177 176 179 180 180 176 177 176 179 184 177 170 167 173 178 183 185 170 167 168 174 154 182 178 192 208 228
252 258 262 268 270 271 270 274 276 160 197 235 228 202 179 171 164 163 168 169 172 173 174 175 175 179 179 179 182 181 183 184 175 168 160 171 180 186 186 175 166 171 183 163 167 144 187 205 239
245 253 260 262 265 263 271 270 262 208 201 206 200 183 173 161 152 155 157 158 165 171 175 177 177 179 181 183 186 189 188 183 178 172 165 173 176 183 187 178 168 177 181 163 155 163 191 225 271
229 237 247 247 245 258 294 277 260 214 177 176 176 177 165 155 152 155 157 162 168 175 176 177 177 182 184 186 190 194 191 188 185 178 174 176 181 183 187 181 173 181 168 167 171 184 202 198 206
225 233 239 255 265 265 292 274 279 256 127 138 158 166 159 156 155 159 162 164 169 174 175 176 179 183 185 187 188 191 190 190 189 189 181 182 190 186 177 173 177 177 177 184 179 191 197 188 199
235 234 246 257 268 272 231 240 262 273 137 149 147 151 162 161 159 161 161 166 168 169 171 172 175 179 184 186 182 185 187 190 189 185 189 190 194 185 172 173 177 183 186 185 176 207 200 171 192
240 243 249 258 270 277 268 262 292 309 306 210 175 164 165 160 160 161 161 165 163 164 164 167 171 176 179 180 181 182 186 186 183 187 192 192 196 183 166 175 181 185 184 186 189 204 195 187 201
225 239 249 260 264 270 279 264 271 272 258 242 199 162 157 160 158 152 156 157 158 160 162 164 167 171 175 178 178 177 183 186 183 189 193 195 193 177 175 180 182 185 187 188 194 212 191 195 205
239 234 241 252 265 275 281 273 250 228 268 244 183 141 141 147 146 149 151 153 158 161 164 166 170 171 174 176 176 178 178 182 187 195 193 189 188 185 185 186 189 195 194 190 194 213 202 196 203
Height
1481 1480 1481 1484 1483 1483 1475 1459 1455 1457 1459 1461 1462 1463 1467 1472 1480 1491 1490 1492 1493 1496 1501 1505 1508 1511 1514 1517 1519 1522 1524 1526 1528 1529 1531 1532 1534 1535 1537 1538 1540 1541 1542 1543 1544 1545 1546 1548 1549
1480 1481 1484 1482 1484 1489 1477 1457 1458 1460 1462 1463 1465 1467 1471 1476 1481 1486 1490 1494 1494 1497 1502 1505 1509 1512 1515 1518 1520 1523 1525 1527 1529 1531 1532 1534 1536 1537 1539 1540 1541 1543 1544 1545 1546 1547 1548 1550 1551
1480 1481 1482 1474 1478 1479 1472 1459 1457 1459 1462 1464 1467 1470 1474 1480 1484 1488 1491 1495 1496 1499 1503 1506 1509 1513 1516 1519 1521 1524 1526 1528 1530 1532 1534 1536 1537 1539 1541 1542 1543 1544 1546 1547 1548 1549 1550 1552 1553
1482 1481 1476 1470 1470 1459 1456 1456 1456 1460 1463 1465 1468 1472 1479 1483 1486 1489 1492 1495 1497 1500 1503 1507 1510 1513 1517 1519 1522 1525 1527 1530 1532 1534 1536 1537 1539 1541 1542 1544 1545 1546 1547 1549 1550 1551 1552 1554 1555
1483 1479 1474 1473 1465 1452 1450 1454 1456 1460 1463 1466 1469 1475 1481 1485 1486 1489 1493 1496 1499 1502 1504 1507 1511 1514 1517 1520 1523 1526 1528 1531 1533 1535 1537 1539 1541 1542 1544 1545 1547 1548 1549 1550 1552 1553 1554 1556 1557
1481 1473 1476 1475 1464 1452 1450 1454 1456 1460 1463 1466 1469 1475 1482 1486 1487 1490 1494 1497 1500 1502 1504 1508 1512 1515 1518 1521 1524 1527 1529 1532 1534 1536 1538 1540 1542 1544 1545 1547 1548 1550 1551 1552 1553 1555 1556 1557 1559
1480 1472 1471 1465 1459 1455 1452 1454 1456 1459 1463 1467 1470 1474 1482 1485 1488 1491 1494 1498 1501 1503 1504 1509 1512 1516 1519 1522 1525 1528 1530 1533 1535 1537 1539 1541 1543 1545 1547 1548 1550 1551 1553 1554 1555 1556 1558 1559 1560
1477 1472 1468 1460 1457 1456 1452 1454 1457 1459 1463 1467 1470 1475 1482 1485 1487 1491 1495 1499 1501 1503 1505 1509 1512 1516 1519 1522 1525 1528 1531 1533 1536 1538 1540 1542 1544 1546 1548 1550 1551 1553 1554 1555 1557 1558 1559 1561 1562
1476 1475 1472 1462 1455 1453 1452 1454 1457 1460 1463 1467 1471 1476 1481 1484 1487 1491 1495 1499 1501 1504 1506 1510 1513 1516 1520 1523 1526 1529 1531 1534 1536 1539 1541 1543 1545 1547 1549 1551 1552 1554 1555 1557 1558 1560 1561 1562 1564
1471 1472 1465 1453 1449 1450 1452 1454 1456 1458 1461 1467 1472 1477 1480 1483 1487 1490 1493 1497 1500 1503 1507 1510 1513 1516 1520 1524 1525 1529 1532 1534 1537 1539 1542 1544 1547 1549 1551 1552 1554 1555 1556 1558 1560 1561 1562 1563 1565
1466 1465 1458 1452 1451 1452 1453 1454 1455 1456 1461 1465 1471 1477 1481 1482 1486 1488 1492 1495 1499 1503 1506 1510 1512 1515 1520 1523 1525 1529 1532 1534 1537 1540 1542 1545 1548 1549 1551 1553 1554 1555 1557 1559 1560 1562 1563 1564 1565
1463 1459 1456 1454 1453 1454 1454 1453 1454 1456 1460 1464 1468 1473 1477 1480 1483 1487 1490 1494 1497 1501 1505 1508 1510 1513 1518 1521 1525 1529 1532 1534 1537 1540 1543 1545 1548 1550 1551 1553 1554 1555 1557 1559 1561 1562 1564 1565 1566
1460 1458 1456 1455 1454 1454 1454 1453 1454 1454 1458 1462 1466 1470 1474 1477 1481 1485 1488 1492 1495 1499 1503 1506 1509 1511 1516 1520 1524 1528 1531 1534 1537 1539 1542 1545 1547 1550 1551 1553 1554 1556 1557 1559 1561 1562 1563 1565 1566
1456 1455 1454 1453 1452 1452 1453 1453 1453 1454 1457 1461 1465 1468 1472 1475 1479 1483 1486 1490 1493 1497 1500 1504 1506 1509 1513 1518 1522 1526 1530 1533 1536 1538 1541 1544 1546 1548 1551 1552 1554 1556 1557 1559 1560 1562 1563 1564 1566
1456 1455 1453 1450 1449 1449 1450 1453 1451 1455 1457 1459 1462 1466 1470 1474 1478 1481 1484 1488 1491 1494 1497 1500 1503 1507 1512 1516 1521 1525 1529 1532 1534 1536 1540 1543 1545 1547 1550 1552 1553 1555 1556 1558 1559 1561 1563 1564 1565
1453 1455 1458 1447 1444 1445 1451 1457 1449 1452 1456 1459 1460 1463 1467 1471 1475 1479 1482 1485 1488 1491 1494 1497 1501 1505 1509 1514 1518 1523 1527 1530 1533 1535 1538 1541 1544 1546 1548 1551 1552 1554 1556 1557 1559 1560 1562 1563 1565
1455 1458 1455 1445 1437 1440 1444 1449 1446 1450 1453 1456 1458 1461 1464 1469 1473 1476 1480 1483 1486 1489 1492 1495 1499 1502 1507 1512 1516 1521 1524 1528 1531 1534 1537 1539 1542 1545 1547 1550 1551 1553 1555 1557 1559 1560 1561 1562 1564
1457 1452 1450 1444 1436 1439 1442 1443 1443 1447 1451 1453 1455 1457 1462 1466 1471 1474 1478 1481 1484 1487 1490 1493 1497 1500 1505 1509 1513 1518 1522 1525 1529 1532 1535 1538 1540 1543 1546 1548 1550 1552 1555 1556 1557 1559 1560 1561 1563
1446 1447 1447 1440 1432 1437 1441 1441 1439 1442 1445 1449 1452 1455 1459 1464 1469 1472 1476 1479 1482 1485 1487 1491 1494 1497 1502 1506 1509 1514 1518 1522 1526 1530 1533 1536 1539 1541 1544 1547 1549 1551 1553 1555 1556 1558 1560 1561 1562
1446 1449 1446 1438 1432 1435 1440 1440 1436 1438 1443 1446 1449 1452 1457 1462 1467 1471 1474 1477 1480 1483 1486 1488 1491 1495 1499 1502 1506 1510 1515 1520 1523 1527 1530 1534 1537 1540 1543 1545 1547 1549 1551 1553 1555 1557 1559 1560 1562
1446 1448 1445 1442 1435 1433 1439 1443 1438 1438 1442 1446 1449 1451 1454 1459 1464 1469 1472 1475 1478 1481 1483 1486 1489 1492 1496 1500 1504 1508 1513 1517 1521 1525 1528 1531 1535 1538 1541 1543 1545 1548 1550 1551 1553 1555 1557 1559 1561
1449 1439 1439 1440 1444 1446 1444 1457 1444 1441 1446 1447 1449 1448 1451 1456 1461 1466 1470 1473 1476 1479 1482 1484 1487 1490 1493 1497 1501 1505 1509 1513 1517 1521 1525 1529 1532 1535 1538 1541 1544 1546 1548 1550 1552 1553 1556 1557 1559
1440 1434 1436 1438 1442 1447 1444 1455 1450 1442 1449 1448 1446 1447 1449 1453 1458 1463 1467 1471 1474 1477 1480 1482 1485 1487 1490 1494 1498 1502 1506 1511 1515 1519 1523 1526 1530 1533 1536 1539 1541 1544 1546 1548 1550 1551 1554 1555 1557
1433 1436 1438 1438 1444 1460 1453 1457 1455 1444 1443 1441 1440 1443 1447 1451 1456 1461 1466 1469 1473 1476 1478 1480 1482 1485 1488 1492 1496 1500 1504 1508 1513 1516 1520 1524 1527 1531 1534 1537 1539 1542 1544 1546 1548 1549 1551 1553 1554
1433 1447 1461 1464 1465 1466 1454 1456 1449 1432 1430 1432 1436 1440 1444 1449 1454 1460 1464 1468 1471 1474 1476 1478 1480 1483 1486 1489 1493 1497 1501 1505 1509 1513 1517 1521 1524 1528 1531 1535 1537 1540 1542 1543 1545 1547 1549 1551 1552
1433 1440 1461 1473 1472 1468 1462 1466 1447 1427 1427 1430 1434 1437 1442 1447 1453 1458 1462 1466 1469 1472 1474 1476 1478 1480 1483 1486 1490 1495 1498 1502 1507 1511 1515 1518 1522 1525 1529 1532 1534 1537 1539 1541 1543 1545 1547 1548 1550
1432 1435 1433 1446 1452 1460 1461 1455 1441 1429 1428 1431 1433 1437 1441 1445 1451 1456 1460 1464 1468 1470 1473 1475 1476 1478 1481 1484 1488 1492 1495 1499 1503 1508 1512 1516 1519 1523 1526 1529 1531 1534 1536 1538 1540 1542 1544 1546 1547
1423 1427 1435 1446 1462 1468 1459 1458 1456 1442 1437 1434 1434 1437 1440 1444 1449 1454 1458 1463 1466 1469 1472 1474 1475 1477 1480 1483 1486 1489 1493 1497 1501 1505 1509 1513 1517 1520 1523 1526 1528 1531 1533 1535 1538 1540 1542 1543 1545
1426 1430 1433 1437 1440 1457 1465 1463 1442 1443 1438 1435 1433 1434 1438 1442 1447 1452 1457 1461 1465 1468 1471 1473 1474 1476 1479 1482 1485 1488 1492 1495 1499 1502 1506 1510 1514 1517 1520 1523 1526 1528 1530 1533 1535 1537 1539 1540 1542
1419 1424 1430 1445 1446 1441 1452 1456 1434 1437 1436 1433 1432 1433 1437 1441 1446 1451 1455 1460 1464 1467 1469 1472 1474 1476 1478 1481 1484 1487 1490 1493 1497 1500 1504 1507 1511 1514 1517 1520 1523 1525 1527 1530 1532 1534 1536 1537 1539